When you browse on this site, cookies collect data to enhance your experience and personalize the content and advertising you see.
Visit our Privacy Policy to learn more. By continuing to use the site, you agree to this use of cookies and data.
  • In Österreich
  • Länderverzeichnis
  • Für 7 Tage
  • Wassertemperatur
  • Satellitenkarten
  • Wetterkarte
  • News
  • Widgets
  • user-avatar
    Anmelden

    Stündliche Wetter Limanowa

    Heute, 24 April, Mittwoch

    Zeit Temperatur Niederschläge Wind Luftdruck Luftfeuchtigkeit
    00:00 +8°C° 0 mm 3 m/S 723 mmHg 83%
    01:00 +8°C° 0 mm 2 m/S 723 mmHg 90%
    02:00 +8°C° 0 mm 3 m/S 723 mmHg 90%
    03:00 +8°C° 0 mm 3 m/S 723 mmHg 89%
    04:00 +8°C° 0 mm 3 m/S 723 mmHg 88%
    05:00 +8°C° 0 mm 4 m/S 723 mmHg 83%
    06:00 +10°C° 0 mm 4 m/S 723 mmHg 77%
    07:00 +12°C° 0 mm 5 m/S 724 mmHg 71%
    08:00 +13°C° 0 mm 5 m/S 724 mmHg 67%
    09:00 +14°C° 0 mm 5 m/S 724 mmHg 63%
    10:00 +15°C° 0 mm 5 m/S 724 mmHg 59%
    11:00 +15°C° 0.1 mm 5 m/S 724 mmHg 62%
    12:00 +15°C° 0.1 mm 5 m/S 724 mmHg 65%
    13:00 +15°C° 0.1 mm 5 m/S 724 mmHg 69%
    14:00 +15°C° 0 mm 5 m/S 724 mmHg 66%
    15:00 +16°C° 0 mm 5 m/S 724 mmHg 62%
    16:00 +17°C° 0 mm 5 m/S 723 mmHg 59%
    17:00 +15°C° 0 mm 4 m/S 723 mmHg 66%
    18:00 +14°C° 0 mm 4 m/S 723 mmHg 73%
    19:00 +12°C° 0 mm 3 m/S 723 mmHg 80%
    20:00 +12°C° 0 mm 3 m/S 723 mmHg 84%
    21:00 +11°C° 0 mm 3 m/S 723 mmHg 88%
    22:00 +11°C° 0 mm 3 m/S 723 mmHg 91%
    23:00 +11°C° 0 mm 3 m/S 723 mmHg 91%

    Morgen, 25 April, Donnerstag

    Zeit Temperatur Niederschläge Wind Luftdruck Luftfeuchtigkeit
    00:00 +11°C° 0 mm 3 m/S 723 mmHg 92%
    01:00 +11°C° 0 mm 3 m/S 723 mmHg 92%
    02:00 +11°C° 0 mm 3 m/S 723 mmHg 90%
    03:00 +11°C° 0 mm 3 m/S 723 mmHg 88%
    04:00 +12°C° 0 mm 3 m/S 723 mmHg 86%
    05:00 +13°C° 0 mm 3 m/S 723 mmHg 81%
    06:00 +14°C° 0 mm 4 m/S 723 mmHg 76%
    07:00 +15°C° 0 mm 5 m/S 723 mmHg 71%
    08:00 +16°C° 0 mm 5 m/S 723 mmHg 64%
    09:00 +19°C° 0 mm 5 m/S 724 mmHg 58%
    10:00 +21°C° 0 mm 5 m/S 724 mmHg 51%
    11:00 +21°C° 0 mm 5 m/S 724 mmHg 48%
    12:00 +22°C° 0 mm 5 m/S 724 mmHg 45%
    13:00 +23°C° 0 mm 5 m/S 724 mmHg 42%
    14:00 +22°C° 0 mm 4 m/S 724 mmHg 46%
    15:00 +21°C° 0 mm 4 m/S 723 mmHg 50%
    16:00 +21°C° 0 mm 4 m/S 723 mmHg 54%
    17:00 +19°C° 0 mm 3 m/S 723 mmHg 61%
    18:00 +17°C° 0 mm 2 m/S 723 mmHg 69%
    19:00 +15°C° 0 mm 1 m/S 722 mmHg 77%
    20:00 +14°C° 0 mm 1 m/S 722 mmHg 80%
    21:00 +14°C° 0 mm 2 m/S 722 mmHg 84%
    22:00 +13°C° 0 mm 2 m/S 722 mmHg 88%
    23:00 +13°C° 0 mm 2 m/S 722 mmHg 89%

    übermorgen, 26 April, Freitag

    Zeit Temperatur Niederschläge Wind Luftdruck Luftfeuchtigkeit
    00:00 +12°C° 0 mm 2 m/S 722 mmHg 89%
    01:00 +12°C° 0 mm 2 m/S 721 mmHg 90%
    02:00 +12°C° 0 mm 2 m/S 721 mmHg 90%
    03:00 +12°C° 0 mm 2 m/S 721 mmHg 89%
    04:00 +12°C° 0 mm 3 m/S 721 mmHg 89%
    05:00 +13°C° 0 mm 3 m/S 721 mmHg 81%
    06:00 +15°C° 0 mm 4 m/S 720 mmHg 73%
    07:00 +18°C° 0 mm 4 m/S 720 mmHg 64%
    08:00 +20°C° 0 mm 5 m/S 720 mmHg 57%
    09:00 +21°C° 0 mm 5 m/S 720 mmHg 50%
    10:00 +23°C° 0 mm 5 m/S 721 mmHg 43%
    11:00 +23°C° 0 mm 5 m/S 720 mmHg 43%
    12:00 +25°C° 0 mm 5 m/S 720 mmHg 42%
    13:00 +25°C° 0 mm 5 m/S 720 mmHg 42%
    14:00 +25°C° 0 mm 5 m/S 720 mmHg 42%
    15:00 +26°C° 0 mm 4 m/S 719 mmHg 43%
    16:00 +26°C° 0 mm 4 m/S 719 mmHg 43%
    17:00 +22°C° 0 mm 3 m/S 719 mmHg 49%
    18:00 +20°C° 0 mm 2 m/S 719 mmHg 56%
    19:00 +18°C° 0 mm 2 m/S 719 mmHg 63%
    20:00 +17°C° 0 mm 2 m/S 719 mmHg 66%
    21:00 +16°C° 0 mm 2 m/S 719 mmHg 69%
    22:00 +15°C° 0 mm 2 m/S 719 mmHg 73%
    23:00 +15°C° 0 mm 2 m/S 719 mmHg 73%

    27 April, Samstag

    Zeit Temperatur Niederschläge Wind Luftdruck Luftfeuchtigkeit
    00:00 +15°C° 0 mm 2 m/S 719 mmHg 74%
    01:00 +15°C° 0 mm 2 m/S 719 mmHg 75%
    02:00 +15°C° 0.1 mm 2 m/S 719 mmHg 77%
    03:00 +14°C° 0.1 mm 1 m/S 719 mmHg 80%
    04:00 +14°C° 0.1 mm 1 m/S 719 mmHg 83%
    05:00 +15°C° 0.1 mm 1 m/S 719 mmHg 82%
    06:00 +15°C° 0.1 mm 1 m/S 719 mmHg 82%
    07:00 +16°C° 0.1 mm 1 m/S 719 mmHg 81%
    08:00 +16°C° 0.2 mm 1 m/S 720 mmHg 80%
    09:00 +16°C° 0.2 mm 1 m/S 720 mmHg 80%
    10:00 +18°C° 0.2 mm 1 m/S 720 mmHg 79%
    11:00 +16°C° 1 mm 1 m/S 719 mmHg 81%
    12:00 +15°C° 1 mm 2 m/S 719 mmHg 83%
    13:00 +15°C° 1 mm 2 m/S 719 mmHg 85%
    14:00 +14°C° 0.3 mm 2 m/S 719 mmHg 87%
    15:00 +13°C° 0.3 mm 2 m/S 718 mmHg 89%
    16:00 +11°C° 0.3 mm 3 m/S 718 mmHg 90%
    17:00 +10°C° 2.1 mm 2 m/S 718 mmHg 92%
    18:00 +9°C° 2.1 mm 2 m/S 718 mmHg 93%
    19:00 +9°C° 2.1 mm 2 m/S 718 mmHg 95%
    20:00 +9°C° 0.2 mm 2 m/S 718 mmHg 95%
    21:00 +9°C° 0.2 mm 2 m/S 718 mmHg 95%
    22:00 +9°C° 0.2 mm 2 m/S 719 mmHg 95%
    23:00 +9°C° 0.3 mm 2 m/S 719 mmHg 95%

    28 April, Sonntag

    Zeit Temperatur Niederschläge Wind Luftdruck Luftfeuchtigkeit
    00:00 +9°C° 0.3 mm 2 m/S 719 mmHg 95%
    01:00 +9°C° 0.3 mm 2 m/S 719 mmHg 95%
    02:00 +8°C° 0.2 mm 2 m/S 719 mmHg 95%
    03:00 +8°C° 0.2 mm 2 m/S 719 mmHg 95%
    04:00 +8°C° 0.2 mm 2 m/S 719 mmHg 95%
    05:00 +9°C° 0 mm 2 m/S 719 mmHg 92%
    06:00 +9°C° 0 mm 3 m/S 719 mmHg 89%
    07:00 +10°C° 0 mm 3 m/S 720 mmHg 86%
    08:00 +10°C° 0.2 mm 3 m/S 720 mmHg 85%
    09:00 +10°C° 0.2 mm 3 m/S 720 mmHg 84%
    10:00 +11°C° 0.2 mm 3 m/S 721 mmHg 83%
    11:00 +11°C° 0.4 mm 3 m/S 721 mmHg 84%
    12:00 +11°C° 0.4 mm 3 m/S 721 mmHg 85%
    13:00 +11°C° 0.4 mm 3 m/S 721 mmHg 86%
    14:00 +11°C° 0.5 mm 3 m/S 721 mmHg 88%
    15:00 +10°C° 0.5 mm 3 m/S 720 mmHg 89%
    16:00 +10°C° 0.5 mm 3 m/S 720 mmHg 91%
    17:00 +10°C° 0.6 mm 2 m/S 720 mmHg 93%
    18:00 +9°C° 0.6 mm 2 m/S 720 mmHg 94%
    19:00 +9°C° 0.6 mm 2 m/S 721 mmHg 96%
    20:00 +9°C° 0.6 mm 2 m/S 721 mmHg 96%
    21:00 +9°C° 0.6 mm 3 m/S 721 mmHg 96%
    22:00 +9°C° 0.6 mm 3 m/S 721 mmHg 96%
    23:00 +8°C° 1.7 mm 3 m/S 720 mmHg 96%

    29 April, Montag

    Zeit Temperatur Niederschläge Wind Luftdruck Luftfeuchtigkeit
    00:00 +8°C° 1.7 mm 3 m/S 720 mmHg 96%
    01:00 +7°C° 1.7 mm 4 m/S 720 mmHg 96%
    02:00 +7°C° 1.3 mm 4 m/S 720 mmHg 96%
    03:00 +7°C° 1.3 mm 4 m/S 720 mmHg 96%
    04:00 +7°C° 1.3 mm 4 m/S 719 mmHg 95%
    05:00 +8°C° 1 mm 3 m/S 719 mmHg 95%
    06:00 +8°C° 1 mm 3 m/S 719 mmHg 95%
    07:00 +8°C° 1 mm 3 m/S 719 mmHg 95%
    08:00 +8°C° 0.9 mm 2 m/S 719 mmHg 94%
    09:00 +8°C° 0.9 mm 2 m/S 719 mmHg 94%
    10:00 +8°C° 0.9 mm 2 m/S 719 mmHg 93%
    11:00 +9°C° 0.3 mm 2 m/S 719 mmHg 91%
    12:00 +9°C° 0.3 mm 2 m/S 719 mmHg 88%
    13:00 +11°C° 0.3 mm 1 m/S 719 mmHg 86%
    14:00 +12°C° 0 mm 1 m/S 719 mmHg 83%
    15:00 +13°C° 0 mm 1 m/S 719 mmHg 80%
    16:00 +14°C° 0 mm 1 m/S 719 mmHg 77%
    17:00 +13°C° 0 mm 1 m/S 719 mmHg 83%
    18:00 +12°C° 0 mm 1 m/S 719 mmHg 89%
    19:00 +11°C° 0 mm 1 m/S 719 mmHg 95%
    20:00 +11°C° 0.1 mm 1 m/S 720 mmHg 96%
    21:00 +11°C° 0.1 mm 1 m/S 720 mmHg 97%
    22:00 +11°C° 0.1 mm 1 m/S 720 mmHg 98%
    23:00 +10°C° 0.1 mm 2 m/S 720 mmHg 98%
    Mehr zeigen